ONEWEB-0011, 44062

Orbit data source: Space-Track

ONEWEB-0011, 44062 is a payload satellite owned by One Web (UK) in LEO that was launched on Wed, 27 Feb 2019 UTC via a SOYUZ-ST-B launch vehicle from the French Guiana (FRGUI). Payload-class satellites include a variety of spacecraft equipped with specific instruments for various scientific and technological missions. These include communications satellites like Starlink; space stations such as the ISS; scientific satellites like the Hubble; Earth observation satellites from companies like Planet Labs, Umbra, and HawkEye 360; GPS; miniature CubeSats for education and research; and military/defense satellites.

Loading next visibility...
Identifier
44062, 2019-010F
Orbit
LEO
Country
Flag of UKUK
Related business
Manufacturer
Airbus/Toulouse
Mission
Operational Commercial Communications
Bus & Motor
ARROW, Unknown motor
Mass
148 kg wet, ~140 kg dry
Launch date (UTC)
2019-02-27 (7 years ago)
Launch vehicle
SOYUZ-ST-B
Launch site
French Guiana (FRGUI)
Object type
Payload
Rocket body
Debris
Shape & HBR
Trap Box + 2 Pan, 6.7 m
Radar Cross Section
3.464 m², Large (>1 m²)

Expand to show TLE details & history
Last TLE update: 15 hours ago

TLE from 15 hours ago
0 ONEWEB-0011
1 44062U 19010F   26127.92487967  .00000115  00000-0  27023-3 0  9991
2 44062  87.8980 267.2177 0001613  98.9924 261.1389 13.15548037346125
Epoch: 2026-05-07T22:11Z
TLE epoch observation values (Epoch: 2026-05-07T22:11:49.603Z)
Latitude
-0.00001°
Longitude
68.49699°
Altitude
1,204.857 km
Speed
7.251 km/s
True Right ascension
17h 48m 52s
True Declination
0° 00' 00"
Sunlit
Object was in full shadow at epoch
Visualization orbit readout
Latitude
Unknown
Longitude
Unknown
Altitude
Unknown
Speed
Unknown
Apparent Right ascension
Unknown
Apparent Declination
Unknown
Sunlit
N/A
Visualization observer readout
Local Sidereal Time
21:33:38
Azimuth
Unknown
Elevation
Unknown
Doppler factor
Unknown
Orbital elements
Apogee altitude
1,200.107 km
Perigee altitude
1,197.663 km
Semi-major axis
7,577.022 km
Eccentricity
0.00016
Inclination
87.898°
RAAN
267.2177°
Arg. of periapsis
98.9924°
True anomaly
261.12064°
Mean anomaly
261.1389°
Eccentric anomaly
261.12977°
Mean motion
3.29075 °/min
Orbital period
109.4 mins
BSTAR
0.00027023
Loading maneuver chart data...
Computing Atmospheric mass density...
Loading historical data...
Loading historical data...
Loading historical data...
Loading historical data...
Loading historical data...
Loading historical data...
Loading historical data...
Other satellites on launch #10 in the year 2019 (2019-02-27 UTC)

Documentation

Showing up to 5 results
|